Regional Weather Roundup
Issued by NWS New Orleans/Baton Rouge, LA

Home | Current Version | Previous Version | Text Only | Print | Product List | Glossary On
Versions: 1 2 3 4 5 6 7 8 9 10 11 12 13 14 15 16 17 18 19 20 21 22 23 24 25 26 27 28 29 30 31 32 33 34 35 36 37 38 39 40 41 42 43 44 45 46 47 48 49 50
392
ASUS44 KLIX 162310
RWRLIX
NEW ORLEANS REGIONAL WEATHER ROUNDUP
NATIONAL WEATHER SERVICE NEW ORLEANS LA
600 PM CDT WED APR 16 2014

NOTE: "FAIR" INDICATES FEW OR NO CLOUDS BELOW 12,000 FEET WITH NO
      SIGNIFICANT WEATHER AND/OR OBSTRUCTIONS TO VISIBILITY.
      SKY/WX - SKY CONDITION AND SIGNIFICANT WEATHER.
      TMP - AIR TEMPERATURE.     DP    - DEWPOINT TEMPERATURE.
      RH  - RELATIVE HUMIDITY.   PRES  - PRESSURE.
      HI  - HEAT INDEX.          WCI   - WIND CHILL INDEX.

*  THESE STATIONS ARE NOT NWS OR FAA STATIONS AND ARE NOT UNDER
   NWS QUALITY CONTROL.

LAZ038-040-048-061>063-065>067-069-170000-
SOUTHEAST LOUISIANA

CITY           SKY/WX    TMP DP  RH WIND       PRES   REMARKS
N.O. AUDUBON   NOT AVBL
N.O. INTL ARPT MOSUNNY   61  43  51 NE12      30.12F
N.O. LAKEFRONT SUNNY     60  39  45 SE10      30.14S
N.O. DOWNTOWN*   N/A     61  36  39 E7        30.14S
SLIDELL        MOSUNNY   60  40  47 SE9       30.13S
BATON ROUGE    PTSUNNY   65  36  34 VRB3      30.10F
BOOTHVILLE     PTSUNNY   57  44  62 NE7       30.14F
BELLE CHASSE   MOSUNNY   60  41  49 E7        30.13F
BOGALUSA*        N/A     66  31  27 CALM      30.13S
GALLIANO*      MOCLDY    62  46  57 E8        30.12S
NEW ROADS*       N/A     63  38  39 SE7       30.10F
GONZALES*        N/A     64  45  50 E5        30.10S
HAMMOND*       MOSUNNY   63  36  36 S5        30.13S
HOUMA*         MOSUNNY   64  43  45 NE7       30.12S
PORT FOURCHON* CLOUDY    59  46  63 E9        30.13F

$$

MSZ070-080>082-170000-
SOUTHERN MISSISSIPPI

CITY           SKY/WX    TMP DP  RH WIND       PRES   REMARKS
MCCOMB         SUNNY     62  34  35 S3        30.11S
GULFPORT       MOSUNNY   58  43  57 SE9       30.14F
BILOXI         MOSUNNY   57  42  56 S6        30.15S
PASCAGOULA     SUNNY     59  44  57 S6        30.15S
STENNIS ARPT*  SUNNY     61  39  44 S8        30.14F

$$

COASTAL OBSERVATIONS
LAKE AND NEARSHORE STATIONS

STATION/POSITION TIME  TEMP    WIND        PRES    WAVE
                       AIR SEA DIR/SP/G            HT/PER
                 (UTC) (F)     (DEG/KT/KT) (MB)    (FT/S)
PASCAGOULA       2300   59     160/  3/  8 1020.4
WAVELAND YACHT   2300   56 66  160/  8/ 11 1019.7
GRAND ISLE       2300   59 67   90/  6/  8 1020.5
SOUTHWEST PASS   2300   62 59   50/ 10/ 12 1020.3
NEW CANAL        2300   60 63  140/  2/  9 1020.7
SHELL BEACH      2300   57 62  130/  9/ 10 1020.5

OFFSHORE STATIONS

STATION/POSITION TIME  TEMP    WIND        PRES    WAVE
                       AIR SEA DIR/SP/G            HT/PER
                 (UTC) (F)     (DEG/KT/KT) (MB)    (FT/S)
64 S DAUPHIN ISL 2214   58 70   80/ 10/ 14 1020.7

$$




USA.gov is the U.S. government's official web portal to all federal, state and local government web resources and services.